| time (UTC) | temp F | wind direction | speed MPH | gust MPH | rain 1hr in | rain 24hr in | rain mn in | humidity % | barometer mb |
| 20260504214539 | 74 | 113 | 1.0 | 4.0 | 0.00 | 0.00 | 0.00 | 45 | 1002.7 |
| 20260504214256 | 75 | 60 | 1.0 | 4.0 | 0.00 | 0.00 | 0.00 | 42 | 1002.7 |
| 20260504213527 | 75 | 128 | 0.0 | 4.0 | 0.00 | 0.00 | 0.00 | 41 | 1002.8 |
| 20260504213021 | 76 | 294 | 1.0 | 6.0 | 0.00 | 0.00 | 0.00 | 42 | 1002.7 |
| 20260504212516 | 76 | 255 | 1.0 | 6.0 | 0.00 | 0.00 | 0.00 | 42 | 1002.7 |
| 20260504212230 | 77 | 228 | 0.0 | 3.0 | 0.00 | 0.00 | 0.00 | 40 | 1002.7 |
| 20260504211504 | 77 | 16 | 0.0 | 2.0 | 0.00 | 0.00 | 0.00 | 41 | 1002.7 |
| 20260504210958 | 77 | 5 | 0.0 | 2.0 | 0.00 | 0.00 | 0.00 | 40 | 1002.7 |
| 20260504210451 | 78 | 78 | 0.0 | 3.0 | 0.00 | 0.00 | 0.00 | 44 | 1002.7 |
| 20260504205946 | 78 | 3 | 1.0 | 4.0 | 0.00 | 0.00 | 0.00 | 42 | 1002.6 |
| 20260504205440 | 78 | 79 | 1.0 | 4.0 | 0.00 | 0.00 | 0.00 | 40 | 1002.7 |
| 20260504204934 | 79 | 114 | 0.0 | 2.0 | 0.00 | 0.00 | 0.00 | 39 | 1002.7 |
| 20260504204427 | 79 | 277 | 1.0 | 5.0 | 0.00 | 0.00 | 0.00 | 43 | 1002.9 |
| 20260504204138 | 80 | 85 | 1.0 | 5.0 | 0.00 | 0.00 | 0.00 | 36 | 1002.8 |
| 20260504203416 | 80 | 230 | 1.0 | 5.0 | 0.00 | 0.00 | 0.00 | 37 | 1002.8 |
| 20260504202909 | 80 | 148 | 1.0 | 6.0 | 0.00 | 0.00 | 0.00 | 35 | 1002.8 |
| 20260504202405 | 79 | 304 | 1.0 | 6.0 | 0.00 | 0.00 | 0.00 | 31 | 1002.9 |
| 20260504201857 | 79 | 255 | 2.0 | 6.0 | 0.00 | 0.00 | 0.00 | 35 | 1002.9 |
| 20260504201351 | 79 | 212 | 1.0 | 6.0 | 0.00 | 0.00 | 0.00 | 35 | 1003.0 |
| 20260504200846 | 79 | 144 | 1.0 | 6.0 | 0.00 | 0.00 | 0.00 | 34 | 1003.0 |
| 20260504200340 | 78 | 222 | 2.0 | 9.0 | 0.00 | 0.00 | 0.00 | 37 | 1003.1 |
| 20260504195833 | 78 | 221 | 2.0 | 9.0 | 0.00 | 0.00 | 0.00 | 30 | 1003.2 |
| 20260504195328 | 77 | 235 | 3.0 | 8.0 | 0.00 | 0.00 | 0.00 | 35 | 1003.3 |
| 20260504194822 | 78 | 216 | 3.0 | 11.0 | 0.00 | 0.00 | 0.00 | 32 | 1003.4 |
| 20260504194318 | 77 | 240 | 3.0 | 11.0 | 0.00 | 0.00 | 0.00 | 35 | 1003.4 |
| 20260504193810 | 78 | 247 | 2.0 | 6.0 | 0.00 | 0.00 | 0.00 | 32 | 1003.5 |
| 20260504193304 | 77 | 32 | 2.0 | 6.0 | 0.00 | 0.00 | 0.00 | 35 | 1003.5 |
| 20260504192758 | 77 | 65 | 2.0 | 8.0 | 0.00 | 0.00 | 0.00 | 36 | 1003.7 |
| 20260504192510 | 77 | 169 | 3.0 | 11.0 | 0.00 | 0.00 | 0.00 | 33 | 1003.8 |
| 20260504191747 | 77 | 199 | 3.0 | 11.0 | 0.00 | 0.00 | 0.00 | 32 | 1003.9 |
| 20260504191240 | 78 | 188 | 2.0 | 6.0 | 0.00 | 0.00 | 0.00 | 35 | 1003.9 |
| 20260504190735 | 77 | 108 | 1.0 | 6.0 | 0.00 | 0.00 | 0.00 | 35 | 1003.9 |
| 20260504190454 | 77 | 107 | 2.0 | 11.0 | 0.00 | 0.00 | 0.00 | 36 | 1003.9 |
| 20260504185734 | 76 | 187 | 3.0 | 11.0 | 0.00 | 0.00 | 0.00 | 36 | 1004.0 |
| 20260504185235 | 77 | 79 | 3.0 | 11.0 | 0.00 | 0.00 | 0.00 | 35 | 1004.2 |
| 20260504184234 | 76 | 139 | 2.0 | 9.0 | 0.00 | 0.00 | 0.00 | 34 | 1004.2 |
| 20260504183734 | 76 | 227 | 1.0 | 8.0 | 0.00 | 0.00 | 0.00 | 36 | 1004.4 |
| 20260504183455 | 76 | 305 | 2.0 | 7.0 | 0.00 | 0.00 | 0.00 | 36 | 1004.4 |
| 20260504182735 | 76 | 136 | 2.0 | 9.0 | 0.00 | 0.00 | 0.00 | 39 | 1004.4 |
| 20260504182235 | 76 | 235 | 2.0 | 9.0 | 0.00 | 0.00 | 0.00 | 37 | 1004.5 |
| 20260504181734 | 75 | 227 | 2.0 | 6.0 | 0.00 | 0.00 | 0.00 | 34 | 1004.6 |
| 20260504181234 | 75 | 236 | 3.0 | 10.0 | 0.00 | 0.00 | 0.00 | 33 | 1004.6 |
| 20260504180734 | 75 | 279 | 4.0 | 10.0 | 0.00 | 0.00 | 0.00 | 34 | 1004.8 |
| 20260504180235 | 75 | 173 | 3.0 | 9.0 | 0.00 | 0.00 | 0.00 | 34 | 1004.7 |
| 20260504175957 | 75 | 153 | 2.0 | 7.0 | 0.00 | 0.00 | 0.00 | 34 | 1004.7 |
| 20260504175235 | 75 | 205 | 2.0 | 7.0 | 0.00 | 0.00 | 0.00 | 33 | 1004.8 |
| 20260504174953 | 75 | 226 | 2.0 | 9.0 | 0.00 | 0.00 | 0.00 | 36 | 1004.9 |
| 20260504174235 | 75 | 293 | 2.0 | 9.0 | 0.00 | 0.00 | 0.00 | 40 | 1005.0 |
| 20260504173735 | 74 | 134 | 2.0 | 9.0 | 0.00 | 0.00 | 0.00 | 40 | 1005.1 |
| 20260504173236 | 74 | 173 | 2.0 | 9.0 | 0.00 | 0.00 | 0.00 | 36 | 1005.2 |
| 20260504172734 | 73 | 175 | 3.0 | 8.0 | 0.00 | 0.00 | 0.00 | 36 | 1005.3 |
| 20260504172454 | 73 | 222 | 3.0 | 10.0 | 0.00 | 0.00 | 0.00 | 34 | 1005.4 |
| 20260504171735 | 74 | 304 | 2.0 | 10.0 | 0.00 | 0.00 | 0.00 | 36 | 1005.3 |
| 20260504171457 | 73 | 252 | 1.0 | 5.0 | 0.00 | 0.00 | 0.00 | 37 | 1005.4 |
| 20260504170734 | 73 | 94 | 2.0 | 6.0 | 0.00 | 0.00 | 0.00 | 35 | 1005.4 |
| 20260504170454 | 73 | 6 | 1.0 | 6.0 | 0.00 | 0.00 | 0.00 | 35 | 1005.4 |
| 20260504160225 | 70 | 237 | 2.0 | 9.0 | 0.00 | 0.00 | 0.00 | 36 | 1006.3 |
| 20260504150721 | 67 | 69 | 1.0 | 5.0 | 0.00 | 0.00 | 0.00 | 43 | 1006.6 |
| 20260504150221 | 67 | 169 | 1.0 | 6.0 | 0.00 | 0.00 | 0.00 | 40 | 1006.6 |
| 20260504141217 | 63 | 208 | 2.0 | 7.0 | 0.00 | 0.00 | 0.00 | 46 | 1007.0 |
| 20260504140716 | 63 | 231 | 2.0 | 7.0 | 0.00 | 0.00 | 0.00 | 48 | 1007.0 |
| 20260504140216 | 62 | 204 | 2.0 | 6.0 | 0.00 | 0.00 | 0.00 | 49 | 1007.0 |
| 20260504130715 | 57 | 224 | 2.0 | 6.0 | 0.00 | 0.00 | 0.00 | 59 | 1007.3 |
| 20260504130214 | 56 | 234 | 2.0 | 6.0 | 0.00 | 0.00 | 0.00 | 59 | 1007.3 |
| 20260504120208 | 54 | 252 | 3.0 | 12.0 | 0.00 | 0.00 | 0.00 | 61 | 1007.9 |
| 20260504110104 | 50 | 223 | 1.0 | 3.0 | 0.00 | 0.00 | 0.00 | 68 | 1008.0 |
| 20260504081926 | 51 | 231 | 0.0 | 2.0 | 0.00 | 0.00 | 0.00 | 69 | 1008.2 |
| 20260504081648 | 51 | 260 | 0.0 | 2.0 | 0.00 | 0.00 | 0.00 | 70 | 1008.1 |
| 20260504080922 | 51 | 223 | 0.0 | 3.0 | 0.00 | 0.00 | 0.00 | 70 | 1008.1 |
| 20260504080422 | 50 | 229 | 0.0 | 3.0 | 0.00 | 0.00 | 0.00 | 71 | 1008.1 |
| 20260504070408 | 49 | 259 | 0.0 | 2.0 | 0.00 | 0.00 | 0.00 | 73 | 1008.3 |
| 20260504050713 | 44 | 242 | 0.0 | 1.0 | 0.00 | 0.00 | 0.00 | 77 | 1008.5 |
| 20260504050208 | 44 | 152 | 0.0 | 0.0 | 0.00 | 0.00 | 0.00 | 76 | 1008.5 |
| 20260504045702 | 44 | 152 | 0.0 | 0.0 | 0.00 | 0.00 | 0.00 | 75 | 1008.4 |
| 20260504045156 | 43 | 152 | 0.0 | 0.0 | 0.00 | 0.00 | 0.00 | 75 | 1008.3 |
| 20260504044650 | 43 | 152 | 0.0 | 0.0 | 0.00 | 0.00 | 0.00 | 75 | 1008.4 |
| 20260504044144 | 43 | 152 | 0.0 | 0.0 | 0.00 | 0.00 | 0.00 | 74 | 1008.4 |
| 20260504043638 | 43 | 152 | 0.0 | 0.0 | 0.00 | 0.00 | 0.00 | 74 | 1008.4 |
| 20260504043132 | 43 | 152 | 0.0 | 0.0 | 0.00 | 0.00 | 0.00 | 73 | 1008.4 |
| 20260504042850 | 43 | 152 | 0.0 | 0.0 | 0.00 | 0.00 | 0.00 | 73 | 1008.4 |
| 20260504042120 | 43 | 153 | 0.0 | 0.0 | 0.00 | 0.00 | 0.00 | 72 | 1008.4 |
| 20260504041614 | 43 | 153 | 0.0 | 0.0 | 0.00 | 0.00 | 0.00 | 73 | 1008.5 |
| 20260504040602 | 43 | 153 | 0.0 | 0.0 | 0.00 | 0.00 | 0.00 | 72 | 1008.4 |
| 20260504040057 | 43 | 153 | 0.0 | 0.0 | 0.00 | 0.00 | 0.00 | 71 | 1008.5 |
| 20260504035549 | 43 | 153 | 0.0 | 0.0 | 0.00 | 0.00 | 0.00 | 71 | 1008.4 |
| 20260504035043 | 43 | 153 | 0.0 | 0.0 | 0.00 | 0.00 | 0.00 | 72 | 1008.4 |
| 20260504034537 | 43 | 153 | 0.0 | 0.0 | 0.00 | 0.00 | 0.00 | 72 | 1008.3 |
| 20260504034258 | 42 | 153 | 0.0 | 0.0 | 0.00 | 0.00 | 0.00 | 72 | 1008.2 |
| 20260504033526 | 42 | 153 | 0.0 | 0.0 | 0.00 | 0.00 | 0.00 | 73 | 1008.3 |
| 20260504033019 | 42 | 153 | 0.0 | 0.0 | 0.00 | 0.00 | 0.00 | 73 | 1008.3 |
| 20260504032738 | 43 | 153 | 0.0 | 0.0 | 0.00 | 0.00 | 0.00 | 74 | 1008.1 |
| 20260504032007 | 43 | 153 | 0.0 | 0.0 | 0.00 | 0.00 | 0.00 | 75 | 1008.2 |
| 20260504031502 | 43 | 153 | 0.0 | 0.0 | 0.00 | 0.00 | 0.00 | 74 | 1008.1 |
| 20260504030956 | 43 | 219 | 0.0 | 0.0 | 0.00 | 0.00 | 0.00 | 74 | 1008.0 |
| 20260504030449 | 43 | 219 | 0.0 | 0.0 | 0.00 | 0.00 | 0.00 | 75 | 1008.0 |
| 20260504025943 | 43 | 219 | 0.0 | 0.0 | 0.00 | 0.00 | 0.00 | 75 | 1008.0 |
| 20260504025437 | 43 | 219 | 0.0 | 1.0 | 0.00 | 0.00 | 0.00 | 77 | 1008.0 |
| 20260504024931 | 43 | 219 | 0.0 | 2.0 | 0.00 | 0.00 | 0.00 | 77 | 1008.0 |
| 20260504024427 | 43 | 219 | 0.0 | 2.0 | 0.00 | 0.00 | 0.00 | 77 | 1007.9 |
| 20260504023924 | 43 | 202 | 0.0 | 0.0 | 0.00 | 0.00 | 0.00 | 77 | 1007.9 |
| 20260504023641 | 43 | 201 | 0.0 | 0.0 | 0.00 | 0.00 | 0.00 | 76 | 1007.9 |
| 20260504022924 | 43 | 202 | 0.0 | 0.0 | 0.00 | 0.00 | 0.00 | 75 | 1007.9 |
| 20260504022421 | 43 | 202 | 0.0 | 0.0 | 0.00 | 0.00 | 0.00 | 75 | 1007.9 |
| 20260504022144 | 43 | 202 | 0.0 | 0.0 | 0.00 | 0.00 | 0.00 | 75 | 1007.9 |
| 20260504021419 | 43 | 202 | 0.0 | 0.0 | 0.00 | 0.00 | 0.00 | 76 | 1007.9 |
| 20260504020917 | 43 | 202 | 0.0 | 0.0 | 0.00 | 0.00 | 0.00 | 74 | 1007.9 |
| 20260504020415 | 43 | 202 | 0.0 | 0.0 | 0.00 | 0.00 | 0.00 | 74 | 1007.8 |
| 20260504015914 | 43 | 202 | 0.0 | 0.0 | 0.00 | 0.00 | 0.00 | 73 | 1007.8 |
| 20260504015411 | 44 | 202 | 0.0 | 0.0 | 0.00 | 0.00 | 0.00 | 73 | 1007.7 |
| 20260504014911 | 44 | 202 | 0.0 | 0.0 | 0.00 | 0.00 | 0.00 | 72 | 1007.7 |
| 20260504014414 | 44 | 202 | 0.0 | 0.0 | 0.00 | 0.00 | 0.00 | 70 | 1007.7 |
| 20260504013909 | 44 | 202 | 0.0 | 0.0 | 0.00 | 0.00 | 0.00 | 69 | 1007.7 |
| 20260504013407 | 44 | 202 | 0.0 | 0.0 | 0.00 | 0.00 | 0.00 | 69 | 1007.7 |
| 20260504012906 | 45 | 202 | 0.0 | 0.0 | 0.00 | 0.00 | 0.00 | 68 | 1007.7 |
| 20260504012628 | 45 | 202 | 0.0 | 0.0 | 0.00 | 0.00 | 0.00 | 67 | 1007.6 |
| 20260504012125 | 46 | 202 | 0.0 | 0.0 | 0.00 | 0.00 | 0.00 | 66 | 1007.6 |
| 20260504011400 | 46 | 202 | 0.0 | 0.0 | 0.00 | 0.00 | 0.00 | 66 | 1007.5 |
| 20260504010858 | 46 | 202 | 0.0 | 0.0 | 0.00 | 0.00 | 0.00 | 65 | 1007.5 |
| 20260504010355 | 47 | 202 | 0.0 | 0.0 | 0.00 | 0.00 | 0.00 | 64 | 1007.5 |
| 20260504005854 | 47 | 202 | 0.0 | 0.0 | 0.00 | 0.00 | 0.00 | 60 | 1007.5 |
| 20260504004844 | 48 | 202 | 0.0 | 0.0 | 0.00 | 0.00 | 0.00 | 58 | 1007.5 |
| 20260504004336 | 49 | 202 | 0.0 | 0.0 | 0.00 | 0.00 | 0.00 | 57 | 1007.4 |
| 20260504003831 | 49 | 202 | 0.0 | 0.0 | 0.00 | 0.00 | 0.00 | 56 | 1007.4 |
| 20260504003324 | 50 | 202 | 0.0 | 0.0 | 0.00 | 0.00 | 0.00 | 54 | 1007.3 |
| 20260504002819 | 50 | 202 | 0.0 | 0.0 | 0.00 | 0.00 | 0.00 | 53 | 1007.2 |
| 20260504002314 | 51 | 202 | 0.0 | 0.0 | 0.00 | 0.00 | 0.00 | 51 | 1007.1 |
| 20260504002036 | 52 | 202 | 0.0 | 0.0 | 0.00 | 0.00 | 0.00 | 50 | 1007.1 |
| 20260504001302 | 53 | 202 | 0.0 | 0.0 | 0.00 | 0.00 | 0.00 | 49 | 1007.0 |
| 20260504000754 | 53 | 202 | 0.0 | 0.0 | 0.00 | 0.00 | 0.00 | 47 | 1007.0 |
| 20260504000520 | 54 | 202 | 0.0 | 0.0 | 0.00 | 0.00 | 0.00 | 45 | 1006.9 |
| 20260503235743 | 55 | 202 | 0.0 | 0.0 | 0.00 | 0.00 | 0.00 | 43 | 1006.9 |
| 20260503235236 | 56 | 202 | 0.0 | 0.0 | 0.00 | 0.00 | 0.00 | 42 | 1006.9 |
| 20260503234730 | 57 | 138 | 0.0 | 0.0 | 0.00 | 0.00 | 0.00 | 40 | 1006.8 |
| 20260503234225 | 58 | 138 | 0.0 | 1.0 | 0.00 | 0.00 | 0.00 | 39 | 1006.8 |
| 20260503233719 | 58 | 138 | 0.0 | 1.0 | 0.00 | 0.00 | 0.00 | 37 | 1006.8 |
| 20260503233214 | 59 | 138 | 0.0 | 1.0 | 0.00 | 0.00 | 0.00 | 36 | 1006.7 |
| 20260503232706 | 60 | 202 | 0.0 | 3.0 | 0.00 | 0.00 | 0.00 | 35 | 1006.7 |
| 20260503232201 | 60 | 157 | 0.0 | 3.0 | 0.00 | 0.00 | 0.00 | 33 | 1006.7 |
| 20260503231655 | 61 | 148 | 0.0 | 3.0 | 0.00 | 0.00 | 0.00 | 33 | 1006.6 |
| 20260503231149 | 62 | 243 | 0.0 | 3.0 | 0.00 | 0.00 | 0.00 | 32 | 1006.6 |
| 20260503230644 | 62 | 146 | 0.0 | 4.0 | 0.00 | 0.00 | 0.00 | 33 | 1006.6 |
| 20260503230136 | 63 | 181 | 1.0 | 7.0 | 0.00 | 0.00 | 0.00 | 33 | 1006.7 |
| 20260503225631 | 63 | 219 | 1.0 | 7.0 | 0.00 | 0.00 | 0.00 | 33 | 1006.7 |
| 20260503225125 | 63 | 113 | 0.0 | 3.0 | 0.00 | 0.00 | 0.00 | 33 | 1006.7 |
| 20260503224619 | 63 | 63 | 0.0 | 3.0 | 0.00 | 0.00 | 0.00 | 32 | 1006.7 |
| 20260503224119 | 63 | 262 | 1.0 | 5.0 | 0.00 | 0.00 | 0.00 | 33 | 1006.7 |
| 20260503223619 | 63 | 63 | 2.0 | 8.0 | 0.00 | 0.00 | 0.00 | 32 | 1006.8 |
| 20260503223119 | 63 | 86 | 1.0 | 8.0 | 0.00 | 0.00 | 0.00 | 30 | 1006.7 |
| 20260503222841 | 63 | 262 | 1.0 | 6.0 | 0.00 | 0.00 | 0.00 | 33 | 1006.7 |
| 20260503222115 | 63 | 252 | 2.0 | 9.0 | 0.00 | 0.00 | 0.00 | 31 | 1006.7 |
| 20260503221836 | 63 | 247 | 3.0 | 9.0 | 0.00 | 0.00 | 0.00 | 30 | 1006.7 |
| 20260503221114 | 64 | 221 | 1.0 | 8.0 | 0.00 | 0.00 | 0.00 | 31 | 1006.7 |
| 20260503220614 | 64 | 264 | 1.0 | 8.0 | 0.00 | 0.00 | 0.00 | 32 | 1006.7 |
| 20260503220114 | 63 | 216 | 2.0 | 8.0 | 0.00 | 0.00 | 0.00 | 31 | 1006.8 |
| 20260503215836 | 64 | 118 | 2.0 | 12.0 | 0.00 | 0.00 | 0.00 | 30 | 1006.7 |
| 20260503215111 | 64 | 256 | 2.0 | 12.0 | 0.00 | 0.00 | 0.00 | 30 | 1006.7 |